Hourly Weather Roundup
Issued by NWS Central Illinois

Home | Current Version | Previous Version | Text Only | Print | Product List | Glossary On
Versions: 1 2 3 4 5 6 7 8 9 10 11 12 13 14 15 16 17 18 19 20 21 22 23 24 25 26 27 28 29 30 31 32 33 34 35 36 37 38 39 40 41 42 43 44 45 46 47 48 49 50
000
NZUS43 KILX 241210
HWRILX

AREA WEATHER ROUNDUP
NATIONAL WEATHER SERVICE, LINCOLN IL
700 AM CDT WED AUG 24 2016


CITY           SKY/WX    TMP DP  RH WIND       PRES   REMARKS
BLOOMINGTON    LGT RAIN  73  71  93 S14       30.03R
6HR MIN TEMP:  69; 6HR MAX TEMP:  73; 6HR PCP: TRACE;

CHAMPAIGN      CLOUDY    72  69  90 S10       30.05S
6HR MIN TEMP:  69; 6HR MAX TEMP:  72;

DANVILLE       CLOUDY    70  68  93 S8        30.05F
6HR MIN TEMP:  68; 6HR MAX TEMP:  70;

DECATUR        CLOUDY    74  71  91 S20G25    30.03F
6HR MIN TEMP:  71; 6HR MAX TEMP:  74;

EFFINGHAM      MOCLDY    72  72 100 SE7       30.10F
FLORA          CLOUDY    74  73  94 S8        30.10F
6HR MIN TEMP:  70; 6HR MAX TEMP:  74;

GALESBURG      CLOUDY    73  72  97 SE6       29.96R
JACKSONVILLE   MOCLDY    75  73  91 S12       29.98R
6HR MIN TEMP:  71; 6HR MAX TEMP:  75; 6HR PCP:  0.01;

LACON          TSTM      72  71  96 W5        30.00R
6HR MIN TEMP:  70; 6HR MAX TEMP:  72; 6HR PCP:  0.30;

LAWRENCEVILLE  PTCLDY    71  70  96 S7        30.13R
6HR MIN TEMP:  68; 6HR MAX TEMP:  71;

LITCHFIELD     CLOUDY    73  70  91 S14       30.04S
$$


CITY           SKY/WX    TMP DP  RH WIND       PRES   REMARKS
LINCOLN        TSTM      74  74  98 S6        29.99S
6HR MIN TEMP:  69; 6HR MAX TEMP:  74; 6HR PCP:  0.29;

MACOMB         LGT RAIN  73  72  98 S12       29.95R
MATTOON        CLOUDY    73  70  90 S9        30.07F
6HR MIN TEMP:  69; 6HR MAX TEMP:  73;

MT CARMEL AP   MOCLDY    73  70  91 S7        30.13R
6HR MIN TEMP:  68; 6HR MAX TEMP:  73;

OLNEY-NOBLE AP CLOUDY    72  72 100 S6        30.11F
PARIS          CLOUDY    70  69  96 S6        30.09F
6HR MIN TEMP:  67; 6HR MAX TEMP:  70;

PEORIA         CLOUDY    74  73  97 S9        29.99R FOG
6HR MIN TEMP:  71; 6HR MAX TEMP:  73; 6HR PCP:  0.47;

PONTIAC        CLOUDY    73  72  98 S9        30.02R
RANTOUL        CLOUDY    71  70  96 S8        30.05F FOG
6HR MIN TEMP:  69; 6HR MAX TEMP:  72;

ROBINSON       CLOUDY    70  69  96 S8        30.12S
6HR MIN TEMP:  67; 6HR MAX TEMP:  70;

SPRINGFIELD    CLOUDY    75  73  93 S13G24    29.99S
6HR MIN TEMP:  73; 6HR MAX TEMP:  76; 6HR PCP:  0.03;

TAYLORVILLE    CLOUDY    73  72  97 S14       30.02F
$$

...REGIONAL REPORTS...


CITY           SKY/WX    TMP DP  RH WIND       PRES   REMARKS
CHICAGO O`HARE CLOUDY    71  66  84 S13       29.99F
KANKAKEE       CLOUDY    70  67  91 S12       30.03S
MOLINE         CLOUDY    73  71  93 E8        29.94R
MOUNT STERLING CLOUDY    73  72  95 S7        29.95S
MOUNT VERNON   CLOUDY    73  68  83 S10       30.10F
PITTSFIELD     CLOUDY    75  73  92 S10       29.99R
QUINCY         CLOUDY    75  74  96 S14       29.95S
ROCKFORD       TSTM      72  69  90 SW9       29.99R FOG
$$


CITY           SKY/WX    TMP DP  RH WIND       PRES   REMARKS
BURLINGTON     CLOUDY    74  73  97 SW7       29.92R
CEDAR RAPIDS   CLOUDY    72  72 100 S8        29.89R FOG
DES MOINES     PTCLDY    68  65  90 SW7       29.89R
KIRKSVILLE     CLOUDY    72  68  87 W13G20    29.94R
OTTUMWA        MOCLDY    68  66  93 SW6       29.91R
ST LOUIS       MOCLDY    77  72  84 S12       30.03F
$$


CITY           SKY/WX    TMP DP  RH WIND       PRES   REMARKS
TERRE HAUTE    CLOUDY    73  67  81 S9        30.11S
EVANSVILLE     PTCLDY    72  70  93 S5        30.15S
INDIANAPOLIS   CLOUDY    70  64  81 S9        30.13F
LAFAYETTE      CLOUDY    70  66  87 S8        30.08F
MADISON        LGT RAIN  68  66  93 SW9G18    29.95R
MILWAUKEE      CLOUDY    74  67  78 S13       29.94F
$$






USA.gov is the U.S. government's official web portal to all federal, state and local government web resources and services.